Regional Weather Roundup
Issued by NWS

Home | Current Version | Previous Version | Graphics & Text | Print | Product List | Glossary On
Versions: 1 2 3 4 5 6 7 8 9 10 11 12 13 14 15 16 17 18 19 20 21 22 23 24 25 26 27 28 29 30 31 32 33 34 35 36 37 38 39 40 41 42 43 44 45 46 47 48 49 50
783
ASUS45 KBOU 300907
RWRCO

WEATHER ROUNDUP FOR COLORADO
NATIONAL WEATHER SERVICE DENVER/BOULDER CO
300 AM MDT MON MAY 30 2016

NOTE: "FAIR" INDICATES FEW OR NO CLOUDS BELOW 12000 FEET WITH NO
SIGNIFICANT WEATHER AND/OR OBSTRUCTIONS TO VISIBILITY.

COZ001>005-013-030-031-301000-
...NORTHWEST COLORADO...

CITY           SKY/WX    TMP DP  RH WIND       PRES   REMARKS
CRAIG          FAIR      40  36  86 CALM      30.13F
HAYDEN         FAIR      43  34  70 SE7       30.15S
MEEKER         FAIR      41  36  82 NE7       30.15S
MOUNT WERNER   NOT AVBL
STEAMBOAT SPGS FAIR      41  34  75 CALM      30.18S
WALDEN         NOT AVBL
$$

COZ006>008-011-301000-
...WEST CENTRAL VALLEYS...

CITY           SKY/WX    TMP DP  RH WIND       PRES   REMARKS
GRAND JUNCTION FAIR      53  36  52 NE3       30.04S
MONTROSE       FAIR      47  33  58 SE6       30.10F
EAGLE          FAIR      41  36  81 E6        30.21S
RIFLE          FAIR      46  36  68 E3        30.10F
DELTA          FAIR      52  33  49 CALM      30.08F
NUCLA          FAIR      50  30  46 SE9       30.12S
$$

COZ017>023-064>068-301000-
...SOUTHWEST COLORADO...

CITY           SKY/WX    TMP DP  RH WIND       PRES   REMARKS
DURANGO        FAIR      44  28  53 NE3       30.13S
CORTEZ         FAIR      41  29  62 CALM      30.09R
PAGOSA SPRINGS FAIR      40  28  60 CALM      30.20S
TELLURIDE      FAIR      42  26  53 SE8       30.29S
WOLF CREEK PAS FAIR      36  25  64 E5        30.46S
$$

COZ009-010-012-014-032>034-037-058>063-301000-
...CENTRAL COLORADO...

CITY           SKY/WX    TMP DP  RH WIND       PRES   REMARKS
ASPEN          FAIR      38  29  70 CALM      30.21S
BUENA VISTA    FAIR      40  28  61 W3        30.26S
COPPER MTN     NOT AVBL
BERTHOUD PASS  FAIR      32  23  69 W8        30.45S WCI  25
COTTONWOOD PAS FAIR      46  25  42 W3        30.34S
GUNNISON       MOCLDY    39  32  75 NE5       30.27F
KREMMLING      FAIR      36  32  87 CALM      30.24F
LEADVILLE      FAIR      30  24  78 NE6       30.33F WCI  24
MONARCH PASS   FAIR      37  23  56 MISG      30.54S
SALIDA         FAIR      43  31  63 SW8       30.32S
SUNLIGHT       FAIR      43  28  56 CALM      30.38F
WILKERSON PASS FAIR      37  28  70 SW3       30.43S
$$

COZ069>075-301000-
...SAN LUIS VALLEY/SANGRE DE CRISTO MOUNTAINS...

CITY           SKY/WX    TMP DP  RH WIND       PRES   REMARKS
ALAMOSA        FAIR      42  39  89 NW3       30.20F
LA VETA PASS   FAIR      45  28  53 E5        30.34F
SAGUACHE       FAIR      45  32  61 NW13G21   30.22F
$$

COZ035-036-038>040-301000-
...NORTHERN COLORADO FRONT RANGE...

CITY           SKY/WX    TMP DP  RH WIND       PRES   REMARKS
DENVER INTL AP FAIR      48  41  76 S6        30.09F
DMNS CITY PARK   N/A     51  42  72 E7        30.10S
AURORA         PTCLDY    51  40  66 S12       30.11F
FRONT RANGE AP NOT AVBL
ERIE MUNI ARPT FAIR      47  42  82 CALM      30.08F
BOULDER MUN AP FAIR      52  36  54 S3        30.09S
CENTENNIAL     FAIR      50  39  66 S8        30.11F
BROOMFIELD     FAIR      48  41  76 W9        30.10F
FORT COLLINS   FAIR      50  43  76 SE9       30.09S
LONGMONT       FAIR      51  43  75 CALM      30.10S
$$

COZ041-046-047-076>085-087-088-301000-
...PIKES PEAK/PALMER DIVIDE AND SOUTHERN FOOTHILLS...

CITY           SKY/WX    TMP DP  RH WIND       PRES   REMARKS
COLO. SPRINGS  FAIR      47  40  76 N13       30.15F
A. F. ACADEMY  FAIR      41  37  87 N8        30.16F
SCHRIEVER AFB  NOT AVBL
ELLICOTT       NOT AVBL
FALCON         FAIR      46  38  76 N3        30.18F
FORT CARSON    FAIR      47  40  78 NW10      30.11F
LIMON          FAIR      42  42 100 N3        30.11F
MONUMENT HILL  FAIR      41  36  81 S6        30.19F
TRINIDAD       FAIR      54  45  71 SW20G26   30.11R
$$

COZ042>045-048>051-090-091-301000-
...NORTHEAST COLORADO...

CITY           SKY/WX    TMP DP  RH WIND       PRES   REMARKS
GREELEY ARPT   FAIR      48  45  87 SW8       30.08S
AKRON          FAIR      52  47  83 SE12      30.07S
BURLINGTON       N/A     52  48  86 S13       30.08F
WRAY           NOT AVBL
STERLING       FAIR      54  50  87 S7        30.03S
HOLYOKE        FAIR      59  52  77 S9        30.04F
FORT MORGAN    FAIR      51  45  82 W7        30.06F
$$

COZ086-089-092>099-301000-
...SOUTHEAST COLORADO...

CITY           SKY/WX    TMP DP  RH WIND       PRES   REMARKS
PUEBLO         FAIR      52  47  83 N6        30.08S
LA JUNTA       FAIR      54  46  74 E5        30.06F
LAMAR          FAIR      48  46  93 E3        30.04F
SPRINGFIELD      N/A     49  47  93 SE8       30.08R
$$




USA.gov is the U.S. government's official web portal to all federal, state and local government web resources and services.